Location: Mountain Grove
(34.0887°N, 86.6172°W)
Time: 00:10:08
(UTC+00:00)

Cosmos 1869 - Pass Details

Date: 14 July 2020
Orbit: 520 x 563 km, 82.5° (Epoch: 12 August)

Event Time Altitude Azimuth Distance (km) Brightness Sun altitude
Rises 03:31:07 0° 343° (NNW) 2,731 8.0 -24.9°
Reaches altitude 10° 03:33:23 10° 336° (NNW) 1,839 7.0 -25.2°
Maximum altitude 03:37:08 37° 268° (W) 874 4.5 -25.7°
Enters shadow 03:37:18 37° 262° (W) 877 4.5 -25.7°
